Location: Ford County Road and Bridge Department
(37.7686°N, 99.9762°W)
Time: 04:18:39
(UTC+00:00)

Nadezhda 3 Rocket - Pass Details

Date: 18 January 2020
Orbit: 958 x 999 km, 82.9° (Epoch: 26 February)

Event Time Altitude Azimuth Distance (km) Brightness Sun altitude
Rises 00:26:18 0° 359° (N) 3,681 6.8 -8.0°
Reaches altitude 10° 00:28:55 10° 5° (N) 2,735 6.1 -8.5°
Maximum altitude 00:34:58 48° 79° (E) 1,263 4.2 -9.7°
Drops below altitude 10° 00:41:01 10° 153° (SSE) 2,746 6.3 -10.8°
Sets 00:43:38 0° 159° (SSE) 3,695 7.0 -11.3°
